This is the latest recevied weather packets stored in our database for station/object N6GPM. If no packets are shown the sender has not sent any weather packets the latest 10 day(s).
| Time | Temp. | Humidity | Pressure | Rain* | Wind** | Luminosity | Snow |
|---|---|---|---|---|---|---|---|
| 1787878262 | 35° C | 30% | 1015 hPa | 0 mm | - | 180 W/m² | - |
| 1787877958 | 35° C | 30% | 1015.3 hPa | 0 mm | - | 199 W/m² | - |
| 1787877653 | 35° C | 30% | 1015.3 hPa | 0 mm | - | 216 W/m² | - |
| 1787877349 | 35° C | 30% | 1015.2 hPa | 0 mm | - | 244 W/m² | - |
| 1787877044 | 35° C | 28% | 1015.3 hPa | 0 mm | - | 262 W/m² | - |
| 1787876739 | 35.56° C | 27% | 1015.2 hPa | 0 mm | - | 314 W/m² | - |
| 1787876434 | 35.56° C | 29% | 1015.2 hPa | 0 mm | - | 385 W/m² | - |
| 1787876133 | 34.44° C | 30% | 1015.4 hPa | 0 mm | - | 450 W/m² | - |
| 1787875828 | 35° C | 30% | 1015.2 hPa | 0 mm | - | 231 W/m² | - |
| 1787875527 | 35° C | 31% | 1015.6 hPa | 0 mm | - | 304 W/m² | - |
| 1787875221 | 35° C | 31% | 1015.5 hPa | 0 mm | - | 225 W/m² | - |
| 1787874920 | 34.44° C | 31% | 1015.7 hPa | 0 mm | - | 252 W/m² | - |
| 1787874615 | 34.44° C | 31% | 1015.4 hPa | 0 mm | - | 275 W/m² | - |
| 1787874309 | 34.44° C | 32% | 1015.3 hPa | 0 mm | - | 304 W/m² | - |
| 1787874008 | 34.44° C | 33% | 1015.4 hPa | 0 mm | - | 274 W/m² | - |
| 1787873702 | 34.44° C | 33% | 1015.5 hPa | 0 mm | - | 235 W/m² | - |
| 1787873397 | 34.44° C | 33% | 1015.4 hPa | 0 mm | - | 238 W/m² | - |
| 1787873097 | 33.89° C | 34% | 1015.3 hPa | 0 mm | - | 253 W/m² | - |
| 1787872791 | 33.89° C | 34% | 1015.6 hPa | 0 mm | - | 280 W/m² | - |
| 1787872487 | 34.44° C | 33% | 1015.5 hPa | 0 mm | - | 309 W/m² | - |
| 1787872182 | 34.44° C | 31% | 1015.5 hPa | 0 mm | - | 324 W/m² | - |
| 1787871881 | 34.44° C | 29% | 1015.6 hPa | 0 mm | - | 373 W/m² | - |
| 1787871576 | 34.44° C | 27% | 1015.6 hPa | 0 mm | - | 387 W/m² | - |
| 1787871272 | 33.89° C | 29% | 1015.8 hPa | 0 mm | - | 351 W/m² | - |
| 1787870967 | 34.44° C | 33% | 1015.9 hPa | 0 mm | - | 405 W/m² | - |
* Rain latest hour (hover to see other rain measurements)
** Current wind speed in m/s (hover to see current wind gust speed)